Overview Statistics Trail Chart Weather Telemetry Raw packets
 

This is the latest recevied weather packets stored in our database for station/object KBTL-WX. If no packets are shown the sender has not sent any weather packets the latest 10 day(s).

<< 1 2 3 4 >>
Time Temp. Humidity Pressure Rain* Wind** Luminosity Snow
1777941915 18.89° C 39% 968.1 hPa 0 mm - - -
1777941032 19.44° C 49% 969.1 hPa 0 mm - - -
1777940114 18.89° C 49% 968.9 hPa 0 mm - - -
1777939236 18.89° C 49% 968.9 hPa 0 mm - - -
1777938314 20° C 46% 968.2 hPa 0 mm - - -
1777937432 21.67° C 37% 968.5 hPa 0 mm - - -
1777936514 21.67° C 37% 968.6 hPa 0 mm - - -
1777935637 22.22° C 37% 968.6 hPa 0 mm - - -
1777934714 22.78° C 36% 967.6 hPa 0 mm - - -
1777933834 22.78° C 40% 968.1 hPa 0 mm - - -
1777932914 22.78° C 40% 968.1 hPa 0 mm - - -
1777932041 23.33° C 40% 968.1 hPa 0 mm - - -
1777931113 23.33° C 41% 969.2 hPa 0 mm - - -
1777930234 23.33° C 41% 969.2 hPa 0 mm - - -
1777929313 23.33° C 38% 968.3 hPa 0 mm - - -
1777928439 23.33° C 38% 968.3 hPa 0 mm - - -
1777927518 23.33° C 43% 968.9 hPa 0 mm - - -
1777926628 22.78° C 43% 968.9 hPa 0 mm - - -
1777925719 23.33° C 43% 968.9 hPa 0 mm - - -
1777924836 22.78° C 39% 968.4 hPa 0 mm - - -
1777923919 23.33° C 36% 969.8 hPa 0 mm - - -
1777923036 22.78° C 36% 969.8 hPa 0 mm - - -
1777922119 22.78° C 36% 969.8 hPa 0 mm - - -
1777921241 22.78° C 36% 969.8 hPa 0 mm - - -
1777920315 22.22° C 32% 970.6 hPa 0 mm - - -

* Rain latest hour (hover to see other rain measurements)
** Current wind speed in m/s (hover to see current wind gust speed)